Location: Newark
(47.5833°N, 8.1500°E)
Time: 18:45:30
(UTC+00:00)

Tiros 1 despin weight - Pass Details

Date: 30 October 2020
Orbit: 593 x 642 km, 48.2° (Epoch: 24 November)

Event Time Altitude Azimuth Distance (km) Brightness Sun altitude
Rises 00:41:00 0° 253° (WSW) 2,861 - -51.5°
Reaches altitude 10° 00:43:18 10° 253° (WSW) 1,951 - -51.2°
Maximum altitude 00:47:47 82° 166° (SSE) 611 - -50.8°
Drops below altitude 10° 00:52:13 10° 79° (E) 1,933 - -50.3°
Sets 00:54:30 0° 79° (E) 2,832 - -50.0°
